CUBESX-HSE 3 (RS42S)

Last updated on Tue Aug 25 2026 00:03:14 GMT+0000 (Coordinated Universal Time)

1 57178U 23091N 26236.62504898 .00011401 00000+0 36268-3 0 9998 2 57178 97.5042 303.1323 0009733 199.9071 160.1792 15.32721506174909
UTC large
Height (km)
Speed (km/s)
/
Latitude / Longitude
Inclination (degrees)
Orbital Period (minutes)
Azimuth
Elevation
Range (km)
Doppler Factor

Next 0 passes for location: London (51.5072 / 0.1276)

No passes found over London.
CUBESX-HSE 3 (RS42S)